CAPE
0 0 0 0 0 0 0 0 0 0 0 0 0 0 0 0 0 0 0 0 37 56 55 53 52 65 82 87 83 93 102 101 117 110 113 114 129 116
0 0 0 0 0 0 0 0 0 0 0 0 0 0 0 0 0 0 0 4 10 28 58 68 77 92 94 96 84 92 83 118 124 132 129 130 126 145
0 0 0 0 0 0 0 0 0 0 0 0 0 0 0 0 0 0 0 0 0 39 83 96 102 98 91 92 102 107 110 110 112 121 135 133 153 153
0 0 0 0 0 0 0 0 0 0 0 0 0 0 0 0 0 0 5 20 7 17 45 48 51 66 69 68 82 88 96 96 89 93 92 111 124 114
0 0 0 0 0 0 0 0 0 0 2 11 0 0 0 0 0 0 0 0 0 0 10 12 34 50 66 76 95 107 89 94 74 82 85 91 109 112
0 0 0 0 0 0 0 0 1 0 0 0 4 0 2 0 0 0 0 0 0 0 1 16 34 34 37 39 39 39 41 45 59 61 67 68 63 80
0 0 0 0 1 6 6 1 1 0 0 0 6 1 0 0 0 0 0 0 0 4 0 0 0 0 0 3 4 11 19 35 45 52 57 69 69 76
0 0 0 0 0 15 21 36 29 15 23 0 0 0 0 0 0 0 3 2 2 0 0 0 0 0 0 0 6 22 35 44 50 54 81 110 105 103
0 0 0 0 0 0 2 38 31 43 7 1 0 0 0 0 0 1 0 2 4 0 6 5 0 0 0 0 7 17 24 34 42 53 58 65 87 97
0 0 0 0 0 12 3 22 0 0 0 0 0 0 3 1 0 1 2 7 2 0 0 1 0 0 0 0 6 12 17 27 38 43 51 54 61 54
0 0 0 1 20 45 36 1 0 0 0 0 38 24 7 9 11 0 0 2 0 0 0 0 0 0 0 0 0 2 15 26 28 36 50 69 85 81
0 0 1 16 30 76 5 0 0 0 0 0 0 0 0 0 6 0 0 0 0 0 0 0 0 1 0 0 0 0 0 1 12 19 26 37 37 23
0 0 0 26 33 28 26 0 0 11 0 0 0 0 0 0 0 0 2 0 0 0 0 0 0 0 0 0 0 0 0 0 0 0 8 15 30 35
1 0 0 30 18 11 4 14 27 16 0 0 0 1 0 0 0 0 0 0 0 0 0 0 0 0 0 0 0 0 0 0 0 0 0 6 23 35
1 12 22 9 1 0 3 10 6 0 0 1 1 0 0 0 0 0 0 0 0 0 0 0 0 0 0 0 0 0 0 0 0 0 0 0 0 0
6 0 0 0 0 0 0 0 0 0 1 0 0 0 0 0 0 0 0 0 0 0 0 0 0 0 0 0 0 0 0 0 0 0 0 0 0 0
4 0 0 0 0 0 0 0 0 0 0 0 0 0 0 0 0 0 0 0 0 0 0 0 0 0 0 0 0 0 0 0 0 0 0 0 0 0
0 0 0 0 1 0 1 0 0 1 0 0 0 0 0 0 0 0 0 0 0 0 0 0 0 0 0 0 0 0 0 0 0 0 0 0 0 2
0 0 1 1 1 0 0 0 0 0 0 0 0 0 0 0 0 0 0 0 0 0 0 0 0 0 0 0 0 0 0 0 0 0 0 0 1 2
0 1 0 1 0 0 0 0 0 0 0 0 0 0 0 0 0 0 0 0 0 0 0 0 0 0 0 0 0 0 0 0 0 0 0 0 0 4
0 1 0 0 0 0 0 0 0 0 0 0 0 0 0 0 0 0 0 1 2 0 0 0 0 4 0 0 0 0 0 0 2 0 0 0 0 0
1 0 0 0 0 0 0 0 0 0 0 0 0 0 0 0 0 0 0 0 0 0 0 0 0 0 0 0 0 0 0 0 0 2 5 13 1 0
1 0 0 0 0 0 0 0 0 0 0 0 0 0 0 0 0 0 0 0 0 0 0 0 0 0 0 0 0 0 0 0 0 0 0 14 13 9
CIN
0 0 0 0 0 0 0 0 0 0 0 0 0 0 0 0 0 0 0 0 0 0 0 0 0 0 0 0 0 0 0 0 0 0 0 0 0 0
0 0 0 0 0 0 0 0 0 0 0 0 0 0 0 0 0 -1 0 0 0 0 0 0 0 0 0 0 0 0 0 0 0 0 0 0 0 0
0 0 0 0 0 0 0 0 0 0 0 0 0 0 0 0 0 0 0 0 0 0 0 0 0 0 0 0 0 0 0 0 0 0 0 0 0 0
0 0 0 0 0 0 0 0 0 0 0 0 0 0 0 0 0 0 -1 0 -5 0 0 0 0 0 0 0 0 0 0 0 0 0 0 0 0 0
0 0 0 0 0 0 0 0 0 0 -5 -1 0 0 0 -3 0 0 0 0 0 0 0 0 0 0 0 0 0 0 0 0 0 0 0 0 0 0
0 0 0 0 0 0 0 0 -3 0 0 -1 -1 -1 0 0 0 0 0 0 0 0 0 0 0 0 0 0 0 0 0 0 0 0 0 0 0 0
0 0 0 0 0 -1 -1 -6 -4 0 0 0 0 0 0 0 0 0 0 0 -1 -4 0 0 0 0 0 0 0 0 0 0 0 0 0 0 0 0
0 0 0 0 0 0 0 0 0 -1 0 0 0 -2 0 0 0 0 0 -2 -1 0 -4 0 -1 -2 0 0 0 0 0 0 0 0 0 0 0 0
0 0 0 0 0 0 -1 0 -3 0 0 -3 0 0 0 0 -2 -1 -2 -1 -1 -2 0 0 0 0 0 0 0 0 0 0 0 0 0 0 0 0
0 0 0 0 0 -6 -5 -1 0 0 0 0 0 -2 -2 -5 -5 -3 0 0 -2 -1 -1 -1 0 0 0 0 0 0 0 0 0 0 0 0 0 0
0 0 0 -8 -1 0 -1 -3 0 0 0 0 0 0 0 0 -1 -1 0 -1 -1 0 0 -2 0 0 0 0 0 0 0 0 0 0 0 0 0 0
0 0 -1 -2 0 0 -3 0 0 0 0 -1 0 0 0 0 0 -1 -1 -1 -2 0 0 0 0 -1 0 0 0 0 0 0 0 0 0 0 0 -1
0 0 0 0 0 0 0 0 0 -4 0 0 0 0 0 0 0 0 -1 0 0 0 0 -1 0 0 0 0 0 0 0 0 0 0 0 0 0 0
-3 0 0 0 0 0 0 0 0 0 0 0 0 -1 -1 0 0 0 0 -1 -1 0 0 0 0 0 0 0 0 0 0 0 0 0 0 0 0 0
-6 -2 0 0 0 0 0 0 0 0 0 0 -1 0 0 0 0 0 0 0 0 0 0 0 0 0 0 0 0 0 0 0 0 0 0 0 0 0
-1 0 0 0 0 0 0 0 0 0 0 -1 0 0 0 0 0 0 0 0 0 0 0 0 0 0 0 0 0 0 0 0 0 0 0 0 0 0
-3 0 0 0 0 0 0 0 0 0 -1 0 0 0 0 0 0 0 0 0 0 0 0 0 0 0 0 0 0 0 0 0 -1 0 0 0 0 0
0 0 0 0 0 0 0 0 0 0 0 0 0 0 0 0 0 0 0 0 0 0 0 0 0 0 0 0 0 0 0 0 0 0 0 0 0 0
0 0 0 0 0 -1 0 0 0 0 0 0 0 0 0 0 0 0 0 0 0 0 0 0 0 0 0 0 0 0 0 0 -1 0 0 0 0 0
0 0 -1 0 0 0 0 0 0 0 0 0 0 0 0 0 0 0 0 0 0 0 0 0 0 0 0 0 0 0 0 0 0 0 0 0 0 0
0 0 0 -1 0 0 0 0 0 0 0 0 0 0 0 0 0 0 0 0 0 0 0 0 0 0 0 0 0 0 0 0 0 0 0 0 0 0
0 -1 0 -1 0 0 0 0 0 0 0 0 0 0 0 0 0 0 0 0 0 0 0 0 0 0 0 0 0 0 0 0 0 0 0 0 0 0
-1 -1 0 0 0 0 0 0 0 0 0 0 0 0 0 0 0 0 0 0 0 0 0 0 0 0 0 0 0 0 0 0 0 0 0 0 0 0
Wind_Speed
4 4 3 4 4 4 3 3 5 12 15 5 3 9 7 8 11 13 14 23 29 32 33 34 34 35 35 34 33 33 36 37 37 37 36 35 37 36
3 4 5 4 5 4 4 4 5 9 14 12 11 12 11 9 14 16 15 26 29 31 32 32 32 34 35 35 38 41 39 37 37 37 38 39 35 35
5 5 6 6 4 4 4 6 7 8 13 17 13 14 15 15 13 12 12 12 13 27 30 33 37 36 37 37 37 37 36 35 35 35 35 36 36 35
6 6 7 6 6 6 6 8 9 10 10 18 16 15 16 16 16 15 10 10 11 22 31 33 34 35 35 35 35 35 34 34 33 33 33 35 36 36
6 6 6 6 7 7 8 9 9 8 9 12 16 13 15 12 12 12 13 12 12 24 28 32 31 33 34 35 34 35 36 37 37 36 36 35 35 35
5 6 7 7 9 10 8 9 9 11 12 12 13 13 9 11 11 13 13 11 13 11 20 25 29 31 34 34 35 34 34 34 34 34 33 33 33 33
6 7 7 11 19 17 11 12 13 12 11 11 9 13 12 12 13 13 14 14 12 10 14 12 11 12 14 24 28 32 32 32 32 32 32 32 32 33
7 8 7 14 13 22 24 26 23 16 12 12 12 14 15 13 14 13 12 14 16 9 9 15 12 13 13 12 26 32 33 33 33 33 32 33 33 33
8 8 9 8 16 11 19 25 23 20 20 16 15 15 16 16 14 15 16 14 15 14 14 17 12 14 13 14 29 32 33 33 33 33 34 32 32 33
9 9 9 11 10 18 17 12 10 10 10 11 13 15 14 15 16 14 16 17 14 13 11 16 12 15 14 13 30 33 33 33 33 32 31 31 31 32
9 7 8 11 21 28 15 14 14 12 16 24 24 25 29 27 23 12 11 12 15 14 12 12 12 14 14 16 15 28 29 30 31 31 31 31 31 31
7 6 13 18 27 27 17 14 12 15 14 11 12 15 17 16 24 12 11 12 13 14 9 8 13 11 9 9 8 11 12 25 29 30 30 30 31 15
9 8 8 24 27 27 26 10 14 18 15 12 11 11 12 11 10 10 11 11 12 14 18 13 9 11 9 13 11 10 11 14 12 16 26 30 31 27
11 8 11 26 27 26 19 23 25 20 9 10 11 11 11 11 11 12 15 14 12 16 18 16 11 12 12 14 16 10 12 13 11 12 11 19 27 29
8 18 25 24 24 16 20 22 20 8 9 10 10 11 10 12 14 13 14 14 15 16 13 15 12 13 12 13 14 15 16 10 10 12 11 12 13 11
15 10 16 19 17 17 14 12 8 9 10 10 9 11 11 10 11 10 12 12 12 13 11 11 13 12 12 11 11 14 12 9 9 13 12 11 12 13
17 8 8 8 9 9 9 10 9 9 9 9 10 11 11 11 12 10 10 11 10 12 14 13 12 12 11 14 11 11 13 12 12 13 13 11 7 4
9 8 8 9 9 10 10 11 10 13 9 10 10 10 11 11 11 11 10 9 11 12 12 12 13 12 11 5 8 9 10 12 14 11 11 8 4 5
6 7 8 9 10 10 10 10 12 11 12 9 10 10 10 10 14 11 10 10 11 11 10 10 10 9 11 11 5 15 13 13 14 11 10 8 5 4
6 8 9 9 10 10 10 11 11 11 10 10 10 10 10 9 10 10 10 11 11 11 10 10 9 9 8 6 6 8 24 13 12 14 10 7 6 10
8 9 9 10 10 10 10 11 11 11 12 11 10 10 10 9 10 10 10 18 18 9 9 10 11 22 7 7 6 8 11 24 19 15 14 6 6 8
8 9 10 10 10 10 11 11 11 11 11 10 10 10 9 8 9 10 9 9 10 8 8 8 9 8 4 5 8 9 10 11 16 24 29 25 8 6
9 10 10 10 10 10 10 10 11 11 11 10 10 10 9 9 9 9 9 9 8 7 6 6 6 4 3 2 9 7 12 11 10 12 13 23 24 22
Wind_Direction
283 267 241 268 252 249 247 248 285 309 306 306 308 299 289 284 276 288 286 283 290 293 293 296 295 293 293 290 293 289 285 284 283 279 275 273 271 266
292 274 270 255 251 248 243 248 245 269 288 310 300 295 295 292 284 290 289 288 289 289 289 290 293 295 294 285 293 288 287 283 280 278 274 271 271 268
302 281 278 269 261 259 251 255 259 257 272 293 294 302 299 294 292 288 283 280 279 285 289 291 290 288 289 288 288 288 286 281 277 278 276 275 271 269
295 299 290 303 288 268 263 264 259 260 267 283 295 301 298 299 297 297 292 283 268 274 289 290 289 292 294 293 290 289 287 281 279 278 279 276 273 269
293 297 292 285 283 275 266 266 269 268 275 280 291 294 290 302 304 293 291 285 279 286 288 287 290 290 292 291 286 285 285 283 281 277 276 273 270 267
310 301 293 288 282 277 270 280 300 294 286 282 282 289 306 302 297 304 298 290 288 288 284 284 287 288 289 290 288 286 286 285 281 276 271 272 270 267
301 293 284 286 308 309 307 314 301 297 290 283 316 302 308 310 304 300 294 296 292 289 284 286 280 279 277 282 279 281 283 279 276 274 273 270 267 264
295 285 270 293 295 307 311 307 305 306 318 309 306 302 301 300 297 297 294 306 302 286 283 288 282 280 276 270 275 278 279 279 278 274 268 267 265 261
283 285 293 297 308 289 288 293 298 305 307 305 301 294 293 294 295 303 299 294 292 296 295 288 290 281 280 276 280 281 280 278 277 274 271 266 264 261
276 279 282 290 290 299 307 304 302 295 297 294 292 291 289 300 300 300 298 294 288 289 286 286 292 284 285 279 280 281 280 279 277 275 272 266 264 257
281 271 279 299 305 313 321 312 310 307 300 302 302 309 307 307 307 304 301 302 299 299 298 288 290 289 287 280 274 275 275 275 277 276 274 265 262 261
298 284 301 312 315 320 323 321 318 305 303 311 315 307 305 298 305 302 298 295 297 301 297 298 299 304 297 272 274 276 272 273 276 275 272 266 260 253
317 317 307 309 322 327 324 329 299 312 330 321 308 305 304 304 304 298 295 291 292 286 288 302 296 294 278 300 292 280 275 276 272 270 270 267 262 254
315 309 302 322 326 325 328 314 322 331 315 306 307 307 310 307 305 303 297 288 277 275 286 286 281 288 287 289 290 291 289 283 272 267 262 258 258 249
313 312 326 325 325 325 317 324 325 312 308 305 306 305 303 302 302 302 300 294 289 286 281 281 277 283 278 279 286 295 297 296 281 273 264 252 244 232
317 321 323 325 321 316 319 316 311 310 309 307 301 301 303 306 305 308 305 309 306 308 300 289 291 284 291 284 286 285 292 300 289 285 273 263 250 228
333 330 320 322 317 315 315 312 310 309 307 305 303 305 306 307 305 309 305 308 304 309 314 320 316 306 288 277 286 285 303 301 309 305 303 302 299 261
334 320 317 315 313 314 312 311 310 311 306 305 303 301 302 302 306 309 309 304 306 311 310 317 323 328 328 296 246 291 321 325 328 319 317 320 6 54
323 314 310 310 308 307 306 306 307 308 308 301 298 297 297 302 309 307 308 308 310 310 317 315 321 331 328 327 291 324 335 337 341 343 343 357 22 69
314 308 307 307 306 305 305 305 305 306 306 301 298 302 299 296 303 306 307 307 310 316 318 323 327 329 329 313 309 306 334 342 353 0 353 9 47 104
313 308 306 304 303 302 302 302 301 300 301 306 299 297 298 299 299 299 300 311 320 316 319 324 320 324 308 304 342 339 342 350 4 9 9 3 12 28
308 306 306 304 302 301 301 300 300 300 302 300 297 297 296 295 294 297 300 303 308 310 307 304 314 325 343 345 343 335 345 346 358 15 25 32 23 16
307 307 306 301 299 298 298 297 297 296 297 296 296 297 297 299 299 295 296 298 303 310 318 314 322 331 305 315 351 342 351 355 353 2 15 16 27 37